Observations for Trim Market St
| Time | AQI | Temp °C | Hum % | Pres Pa | CO μg/m³ | H₂S μg/m³ | NO μg/m³ | NO₂ μg/m³ | O₃ μg/m³ | SO₂ μg/m³ | PM1 μg/m³ | PM2.5 μg/m³ | PM10 μg/m³ |
|---|---|---|---|---|---|---|---|---|---|---|---|---|---|
| Thursday 16 July 2026 | |||||||||||||
| 15:10 | 1 | 40 | 25 | 67,003 | 0 | 0 | 0 | 0 | 23.95 | 3.1 | 9.26 | 15.09 | 21.85 |
| 15:09 | 1 | 40 | 25 | 67,015 | 0 | 0 | 0 | 0 | 49.15 | 3.78 | 8.55 | 13.98 | 18.26 |
| 15:05 | 1 | 40.1 | 25 | 67,027 | 0 | 0 | 0 | 0 | 36.27 | 3.12 | 9.26 | 14.53 | 21.84 |
| 15:04 | 1 | 40 | 25 | 67,021 | 0 | 0 | 0 | 0 | 44.85 | 3.22 | 7.13 | 12.88 | 17.36 |
| 14:55 | 1 | 39.8 | 26 | 66,996 | 0 | 0 | 0 | 0 | 43.35 | 2.5 | 4.99 | 12.29 | 16.44 |
| 14:54 | 1 | 39.7 | 25 | 66,979 | 0 | 0 | 0 | 0 | 44.09 | 2.53 | 5.7 | 13.41 | 20.03 |
| 14:50 | 1 | 39.5 | 26 | 66,918 | 0 | 0 | 0 | 0 | 31.27 | 2.18 | 8.55 | 14.48 | 19.09 |
| 14:49 | 1 | 39.4 | 26 | 66,918 | 0 | 0 | 0 | 0 | 55.88 | 1.94 | 8.55 | 14.48 | 20.87 |
| 14:48 | 1 | 39.4 | 26 | 66,916 | 0 | 0 | 0 | 0 | 36.62 | 1.18 | 9.26 | 15.02 | 20.87 |
| 14:47 | 1 | 39.3 | 26 | 66,888 | 0 | 0 | 0 | 0 | 28.03 | 1.63 | 6.41 | 13.92 | 19.09 |
| 14:46 | 1 | 39.2 | 26 | 66,882 | 0 | 0 | 0 | 0.07 | 45.28 | 1.34 | 7.84 | 14.47 | 19.98 |
| 14:45 | 1 | 39.2 | 26 | 66,898 | 0 | 0 | 0 | 1.37 | 18.17 | 0.19 | 8.55 | 14.47 | 19.98 |
| 14:44 | 1 | 39.1 | 26 | 66,898 | 0 | 0 | 0 | 0 | 46.06 | 1.89 | 7.13 | 13.36 | 19.08 |
| 14:43 | 1 | 39.1 | 26 | 66,892 | 0 | 0 | 0 | 0 | 25.41 | 1.59 | 9.26 | 15.55 | 21.74 |
| 14:42 | 1 | 39 | 26 | 66,888 | 0 | 0 | 0 | 0 | 40.5 | 1.92 | 9.26 | 14.97 | 20.8 |
| 14:41 | 1 | 38.9 | 27 | 66,888 | 0 | 0 | 0 | 0 | 38.3 | 1.03 | 6.41 | 12.22 | 15.49 |
| 14:40 | 1 | 38.8 | 27 | 66,853 | 0 | 0 | 0 | 0 | 47.51 | 1.33 | 9.98 | 13.85 | 19.01 |
| 14:39 | 1 | 38.7 | 27 | 66,843 | 0 | 0 | 0 | 0.61 | 41.9 | 0.93 | 7.13 | 14.41 | 19.02 |
| 14:38 | 1 | 38.6 | 27 | 66,827 | 0 | 0 | 0 | 1.93 | 34.34 | 0.02 | 8.55 | 14.95 | 20.78 |
| 14:37 | 1 | 38.5 | 27 | 66,809 | 0 | 0 | 0 | 0 | 47.08 | 1.24 | 9.98 | 17.67 | 24.29 |